Regional Weather Roundup
Issued by NWS Charleston, SC

Current Version | Previous Version | Graphics & Text | Print | Product List | Glossary On
Versions: 1 2 3 4 5 6 7 8 9 10 11 12 13 14 15 16 17 18 19 20 21 22 23 24 25 26 27 28 29 30 31 32 33 34 35 36 37 38 39 40 41 42 43 44 45 46 47 48 49 50
000
ASUS42 KCHS 292010
RWRCHS
REGIONAL WEATHER ROUNDUP
NATIONAL WEATHER SERVICE CHARLESTON SC
400 PM EDT FRI AUG 29 2014

NOTE: "FAIR" INDICATES FEW OR NO CLOUDS BELOW 12,000 FEET WITH NO
SIGNIFICANT WEATHER AND/OR OBSTRUCTIONS TO VISIBILITY.

NOT ALL STATIONS ARE QUALITY CONTROLLED BY THE NATIONAL
WEATHER SERVICE. USE DATA WITH CAUTION...ESPECIALLY
DEWPOINT OBSERVATIONS.

SCZ027-030-031-034>040-042>050-292100-
...SOUTH CAROLINA...

CITY           SKY/WX    TMP DP  RH WIND       PRES   REMARKS
N CHARLESTON   MOSUNNY   90  72  55 SE9G18    30.06F HX  97
WATERFRONT PRK   N/A     84 N/A N/A E25         N/A
FORT JOHNSON   NOT AVBL
MOUNT PLEASANT FAIR      88  77  70 SE6       30.07S HX 100
JOHNS ISLAND   PTCLDY    86  77  74 CALM      30.07S HX  97
PINOPOLIS        N/A     91  70  49 N3        29.97F HX  97
MONCKS CORNER    N/A     90  77  66 S10       30.05F HX 102
SUMMERVILLE    FAIR      90  72  55 S3        30.05F HX  96
BEAUFORT MCAS  SUNNY     92  64  39 SW6       30.05F HX  93
BEAUFORT ARPT  FAIR      88  70  55 S3        30.05F HX  92
HILTON HEAD IS NOT AVBL
GEORGETOWN     NOT AVBL
WALTERBORO     MOCLDY    91  63  38 E6        30.05F HX  92
ORANGEBURG     SUNNY     93  58  30 VRB6      30.04F HX  92
BARNWELL       FAIR      93  59  31 SE6       30.04F HX  92
AIKEN          FAIR      95  61  31 SE8       30.07F HX  95
MANNING        FAIR      91  66  43 E5        30.05F HX  94
KINGSTREE      NOT AVBL
COLUMBIA       MOSUNNY   96  52  22 SE9G20    30.04F HX  93
SUMTER         SUNNY     94  60  31 VRB7G17   30.04F HX  94
FLORENCE       SUNNY     94  63  35 SE12      30.05F HX  95
MYRTLE BEACH   MOSUNNY   86  72  62 SE12      30.08S HX  92
N MYRTLE BEACH SUNNY     85  72  65 S9        30.08S HX  91

$$

GAZ063-065-086>088-099>101-113>116-118-119-134-136>141-150-292100-
...GEORGIA...

CITY           SKY/WX    TMP DP  RH WIND       PRES   REMARKS
SAVANNAH ARPT  MOSUNNY   89  70  53 SE12      30.04F HX  94
HUNTER AAF     SUNNY     90  71  54 SE9       30.03F HX  96
FORT STEWART   MOSUNNY   91  69  47 E12       30.02F HX  95
STATESBORO     NOT AVBL
SYLVANIA       PTCLDY    91  65  41 CALM      30.04F HX  93
CLAXTON        NOT AVBL
THOMSON        SUNNY     95  65  36 SW5       30.08S HX  98
AUGUSTA-BUSH   SUNNY     95  56  26 SE9       30.03F HX  93
AUGUSTA-DANIEL SUNNY     95  56  26 S6        30.05F HX  93
SWAINSBORO     FAIR      97  64  34 S9        30.03F HX  99
VIDALIA          N/A     93  63  36 CALM      30.03F HX  94
ALMA           SUNNY     94  62  34 SE7       30.02F HX  94
WAYCROSS       MOSUNNY   98  66  34 S7        30.01F HX 101
JESUP            N/A     95  64  36 SE6       30.03S HX  97
BRUNSWICK      SUNNY     90  68  48 SE10      30.05F HX  93
SAINT SIMONS   SUNNY     87  73  62 E12       30.05F HX  94

$$

SCZ027-028-034-036>038-045-046-048>050-GAZ119-141-292100-
...LAKE AND SUPPLEMENTAL COASTAL OBSERVATIONS...

STATION/POSITION TIME  TEMP    WIND        PRES    WAVE   SWELL
                       AIR SEA DIR/SP/G            HT/PER HT/PER/DIR
                 (UTC) (F)     (DEG/KT/KT) (MB)    (FT/S) (FT/S/D)
UPR LAKE MARION  NOT AVBL
WINYAH BAY       1900   83     110/  9     1019.0S
LAKE MURRAY      1900   89     200/  7/ 10 1016.6F
ACE BASIN NERRS  1900   88     170/  2     1019.0S
FORT PULASKI     2000   85     130/  8/ 10 1018.1F
SAPELO ISLAND    NOT AVBL

$$

ANZ835-935-AMZ111-154-330-350-352-354-374-450-454-472-292100-
...C-MAN AND BUOY OBSERVATIONS...

STATION/POSITION TIME  TEMP    WIND        PRES    WAVE   SWELL
                       AIR SEA DIR/SP/G            HT/PER HT/PER/DIR
                 (UTC) (F)     (DEG/KT/KT) (MB)    (FT/S) (FT/S/D)
FOLLY BEACH CMAN 1900   83     100/  8/  9 1018.8F
BUOY 41004       2000   82 84   30/ 10/ 12 1018.0F   3/ 9   3/ 9
BUOY 41008       2000   83 85  100/  8/ 10 1018.1F   2/ 9   2/100/ 9
5E ST. MARYS GA  2000      86                N/A     2/ 8
FRYING PAN BUOY  NOT AVBL
BUOY 41025       2000   81      CALM  /  2 1019.3F   3/ 8   3/ 80/ 8
CAPE LOOKOUT NC  1900   83     200/  8/ 10 1019.3F
BUOY 41002       1926   81 84  100/  6/  8 1020.0F   4/ 8   3/120/ 8
BUOY 41010       2000   82 83   CALM  /  2 1018.0F   3/ 8   3/100/ 8
BUOY 41012       NOT AVBL
ST AUGUSTINE FL  2000   83      80/ 11/ 12 1017.5F
CAPERS NEARSHORE 1900   82     110/ 10/ 12   N/A
FRIPP NEARSHORE  NOT AVBL


$$



USA.gov is the U.S. government's official web portal to all federal, state and local government web resources and services.